Regional Weather Roundup
Issued by NWS

Home | Current Version | Previous Version | Graphics & Text | Print | Product List | Glossary Off
Versions: 1 2 3 4 5 6 7 8 9 10 11 12 13 14 15 16 17 18 19 20 21 22 23 24 25 26 27 28 29 30 31 32 33 34 35 36 37 38 39 40 41 42 43 44 45 46 47 48 49 50

000
ASUS43 KDMX 251208
RWRIA

WEATHER ROUNDUP FOR IOWA
NATIONAL WEATHER SERVICE DES MOINES IA
700 AM CDT THU AUG 25 2016

NOTE: "FAIR" INDICATES FEW OR NO CLOUDS BELOW 12,000 FEET WITH NO
SIGNIFICANT WEATHER AND/OR OBSTRUCTIONS TO VISIBILITY.

* - THESE STATIONS ARE NOT NWS STATIONS...THUS NOT UNDER NWS
QUALITY CONTROL.  THEY ALSO DO NOT REPORT WEATHER SUCH
AS PRECIPITATION OR FOG.

IAZ001>003-012>014-020>022-031>034-043>046-251300-
   NORTHWEST IOWA

CITY           SKY/WX    TMP DP  RH WIND       PRES   REMARKS
CARROLL *      CLEAR     55  55 100 NW6       30.09S
CHEROKEE *     CLEAR     55  55 100 CALM      30.11R
DENISON *      CLEAR     55  55 100 CALM      30.08S FOG
LE MARS *      CLEAR     55  55 100 CALM      30.10S
ORANGE CITY *  PTCLDY    57  55  94 CALM      30.10S
SHELDON *      PTCLDY    54  54 100 CALM      30.09R
SIOUX CITY     PTCLDY    57  54  89 S5        30.10R
6HR MIN TEMP:  56; 6HR MAX TEMP:  60;

SPENCER        CLOUDY    54  53  97 W3        30.10R
6HR MIN TEMP:  53; 6HR MAX TEMP:  58;

STORM LAKE *   CLEAR     59  55  88 MISG      30.11R
$$

IAZ055>058-069>071-079>083-090>094-251300-
   SOUTHWEST IOWA

CITY           SKY/WX    TMP DP  RH WIND       PRES   REMARKS
ATLANTIC *     CLEAR     57  57 100 N6        30.08S
AUDUBON *      CLEAR     55  52  88 CALM      30.10S
CLARINDA *       N/A     66  64  94 MISG      30.09R
COUNCIL BLFS * PTCLDY    59  59 100 N6        30.09R
CRESTON *      CLOUDY    64  63  94 NE7       30.09R
HARLAN  *      CLEAR     54  54 100 CALM      30.12S FOG
LAMONI         PTCLDY    65  65 100 NE6       30.05F
6HR MIN TEMP:  65; 6HR MAX TEMP:  68;

RED OAK *      MOCLDY    61  61 100 NE3       30.08R
SHENANDOAH *   CLOUDY    61 N/A N/A CALM      30.07S
$$

IAZ047>049-059>061-072>074-084-251300-
   CENTRAL IOWA

CITY           SKY/WX    TMP DP  RH WIND       PRES   REMARKS
AMES           PTCLDY    62  62 100 NW5       30.08R
6HR MIN TEMP:  62; 6HR MAX TEMP:  68;

ANKENY *         N/A    N/A N/A N/A MISG        N/A
BOONE *          N/A     61  59  94 N5        30.08R
CHARITON *       N/A     66  64  94 MISG      30.06R
DES MOINES     PTCLDY    67  63  87 N5        30.07R
6HR MIN TEMP:  67; 6HR MAX TEMP:  72;

GRINNELL*      CLOUDY    64  61  91 NW5       30.07R
KNOXVILLE *    MOCLDY    66  63  88 N7        30.05S
MARSHALLTOWN   CLOUDY    62  62 100 NW5       30.06R
6HR MIN TEMP:  62; 6HR MAX TEMP:  67;

NEWTON *       MOCLDY    64  63  94 N6        30.06R
PERRY *          N/A     60  60  99 NW3       30.09R
$$

IAZ004>006-015-016-023>025-035-036-251300-
   NORTH CENTRAL IOWA

CITY           SKY/WX    TMP DP  RH WIND       PRES   REMARKS
ALGONA *       CLEAR     59  55  88 NW3       30.08S
ESTHERVILLE    CLOUDY    57  56  96 W7        30.09R
6HR MIN TEMP:  56; 6HR MAX TEMP:  58;

FORT DODGE *   CLEAR     59  55  88 NW3       30.09S
MASON CITY     CLOUDY    58  57  97 W5        30.09R
6HR MIN TEMP:  58; 6HR MAX TEMP:  65;

FOREST CITY *    N/A    N/A N/A N/A MISG        N/A
WEBSTER CITY * CLEAR     57  55  94 CALM      30.07R
IOWA FALLS *   CLOUDY    63  60  93 W5        30.09R
$$

IAZ007>011-017>019-026>030-037>042-050>054-066-251300-
   NORTHEAST IOWA

CITY           SKY/WX    TMP DP  RH WIND       PRES   REMARKS
CEDAR RAPIDS   CLOUDY    65  65 100 NW5       30.04R
6HR MIN TEMP:  65; 6HR MAX TEMP:  71;

CHARLES CITY * CLOUDY    61  61 100 NW5       30.06S
CLINTON *      CLOUDY    68  65  90 N8        30.02R
DECORAH *      CLEAR     61  61 100 N3        30.04S
DUBUQUE        CLOUDY    65  60  84 N8        30.04R
6HR MIN TEMP:  64; 6HR MAX TEMP:  73;

MONTICELLO *   PTCLDY    64  63  94 CALM      30.04R
OELWEIN *      MOCLDY    61  59  94 NW6       30.06S
WATERLOO       MOCLDY    62  60  93 CALM      30.05S
6HR MIN TEMP:  61; 6HR MAX TEMP:  66;

$$

IAZ064-065-067-068-078-251300-
   EAST CENTRAL IOWA

CITY           SKY/WX    TMP DP  RH WIND       PRES   REMARKS
DAVENPORT      CLOUDY    69  67  93 NW5       30.03R
6HR MIN TEMP:  69; 6HR MAX TEMP:  71; 6HR PCP:  0.02;

IOWA CITY      CLOUDY    69  62  78 NW7       30.05R
6HR MIN TEMP:  69; 6HR MAX TEMP:  72;

MT. PLEASANT * RAIN      70  70 100 NW6       30.05S
MUSCATINE *    CLOUDY    70  66  88 NW5       30.04R
QUAD CITIES    CLOUDY    72  69  90 W3        30.02R
6HR MIN TEMP:  71; 6HR MAX TEMP:  72; 6HR PCP:  0.04;

$$

IAZ062-063-075>077-085>089-095>099-251300-
   SOUTHEAST IOWA

CITY           SKY/WX    TMP DP  RH WIND       PRES   REMARKS
BURLINGTON     CLOUDY    69  69 100 W6        30.03R
6HR MIN TEMP:  68; 6HR MAX TEMP:  71; 6HR PCP:  0.24;

FAIRFIELD *    CLOUDY    68  64  88 N6        30.04S
FORT MADISON * CLOUDY    70  70 100 CALM      30.04S
KEOKUK *       CLOUDY    72  70  94 SW3       30.04R
OSKALOOSA *    MOCLDY    65  64  97 N5        30.06R
CENTERVILLE *  MOCLDY    68  66  94 CALM      30.06S
OTTUMWA        CLOUDY    68  65  90 NE3       30.05R
6HR MIN TEMP:  68; 6HR MAX TEMP:  69; 6HR PCP:  0.41;

WASHINGTON *   CLOUDY    68  66  94 NW3       30.05R
$$

ABBREVIATIONS USED IN REMARKS
   TC - TEMPERATURES IN CELSIUS
  WCI - WIND CHILL INDEX
   HX - HEAT INDEX
  VSB - VISIBILITY
$$





USA.gov is the U.S. government's official web portal to all federal, state and local government web resources and services.